sat.trackr.live / text

‹ back to catalog

STARLINK-30227

NORAD 57505 · 2023-113L

PAYLOAD ACTIVE UNKNOWN

§ Identity

Operator
Country
US
Launch date
2023-08-07
Launch site
AFETR
Launch vehicle
Mass (kg)
RCS (m²)

Purposes: comms

External: N2YO · Heavens-Above · Gunter

§ Orbital elements

Epoch: 2026-05-25T02:27:43.459776Z

Period
94.50 min
Inclination
43.0018°
Eccentricity
0.0008834
Mean motion
15.23837180 rev/d
Perigee alt
488.2 km
Apogee alt
500.4 km
Semi-major
6,872.4 km
B*
1.5479e-3
RAAN
294.7720°
Arg perigee
307.5184°
Mean anomaly
52.4863°
Rev number
15,547

§ Raw data

STARLINK-302271 57505U 23113L   26145.10258634  .00038031  00000+0  15479-2 0  99912 57505  43.0018 294.7720 0008834 307.5184  52.4863 15.23837180155470

JSON: /api/v1/satellites/57505 · /tle

For live sub-satellite position, see the globe view (requires WebGL).

§ Visibility from observer

Set your observer location to see the next 7 days of passes ≥ 10°. The values pass through the URL so the page stays shareable.

No JS? Fill the form by hand. The geolocation button needs JavaScript.